This is the latest recevied weather packets stored in our database for station/object KG5WBN. If no packets are shown the sender has not sent any weather packets the latest 10 day(s).
| Time | Temp. | Humidity | Pressure | Rain* | Wind** | Luminosity | Snow |
|---|---|---|---|---|---|---|---|
| 1777582877 | 25° C | 77% | 1009.1 hPa | 0 mm | - | 26 W/m² | - |
| 1777582575 | 25° C | 75% | 1009.1 hPa | 0 mm | - | 38 W/m² | - |
| 1777582270 | 25° C | 74% | 1009.1 hPa | 0 mm | - | 41 W/m² | - |
| 1777581967 | 26.11° C | 73% | 1009.1 hPa | 0 mm | - | 62 W/m² | - |
| 1777581663 | 26.11° C | 73% | 1009.5 hPa | 0 mm | - | 102 W/m² | - |
| 1777581356 | 26.11° C | 73% | 1009.1 hPa | 0 mm | - | 88 W/m² | - |
| 1777581052 | 26.11° C | 73% | 1009.1 hPa | 0 mm | - | 101 W/m² | - |
| 1777580751 | 26.11° C | 75% | 1009.1 hPa | 0 mm | - | 137 W/m² | - |
| 1777580448 | 26.11° C | 76% | 1009.1 hPa | 1.78 mm | - | 119 W/m² | - |
| 1777580148 | 26.11° C | 77% | 1009.1 hPa | 1.78 mm | - | 126 W/m² | - |
| 1777579845 | 25° C | 80% | 1009.1 hPa | 0 mm | - | 148 W/m² | - |
| 1777579543 | 25° C | 82% | 1009.1 hPa | 0 mm | - | 132 W/m² | - |
| 1777579238 | 25° C | 82% | 1009.1 hPa | 0 mm | - | 99 W/m² | - |
| 1777578934 | 25° C | 82% | 1010.2 hPa | 0 mm | - | 66 W/m² | - |
| 1777578629 | 25° C | 82% | 1009.8 hPa | 0 mm | - | 57 W/m² | - |
| 1777578329 | 25° C | 85% | 1010.5 hPa | 0 mm | - | 55 W/m² | - |
| 1777578026 | 24.44° C | 87% | 1009.8 hPa | 0 mm | - | 55 W/m² | - |
| 1777577720 | 25° C | 90% | 1010.2 hPa | 0 mm | - | 67 W/m² | - |
| 1777577418 | 24.44° C | 91% | 1010.2 hPa | 0 mm | - | 89 W/m² | - |
| 1777577114 | 24.44° C | 91% | 1010.2 hPa | 0 mm | - | 98 W/m² | - |
| 1777576810 | 23.89° C | 92% | 1010.2 hPa | 0 mm | - | 111 W/m² | - |
| 1777576510 | 23.89° C | 93% | 1010.2 hPa | 0 mm | - | 133 W/m² | - |
| 1777576207 | 23.89° C | 94% | 1010.2 hPa | 0 mm | - | 118 W/m² | - |
| 1777575902 | 23.89° C | 95% | 1010.2 hPa | 0 mm | - | 114 W/m² | - |
| 1777575599 | 23.89° C | 97% | 1010.2 hPa | 0 mm | - | 162 W/m² | - |
* Rain latest hour (hover to see other rain measurements)
** Current wind speed in m/s (hover to see current wind gust speed)